Regional Weather Roundup
Issued by NWS Albany, NY

Home | Current Version | Previous Version | Graphics & Text | Print | Product List | Glossary On
Versions: 1 2 3 4 5 6 7 8 9 10 11 12 13 14 15 16 17 18 19 20 21 22 23 24 25 26 27 28 29 30 31 32 33 34 35 36 37 38 39 40 41 42 43 44 45 46 47 48 49 50
000
ASUS41 KALY 271610
RWRALY

NEW YORK STATE HOURLY WEATHER ROUNDUP
NATIONAL WEATHER SERVICE ALBANY NY
1200 PM EDT MON APR 27 2015

NOTE: "FAIR" INDICATES FEW OR NO CLOUDS BELOW 12,000 FEET WITH NO
SIGNIFICANT WEATHER AND/OR NO OBSTRUCTIONS TO VISIBILITY.

NYZ032-033-038>043-046>054-057>066-NYZ062>081-271700-
EAST


CITY           SKY/WX    TMP DP  RH WIND       PRES   REMARKS
ALBANY         LGT RAIN  51  38  60 N10       29.69S
GLENS FALLS    CLOUDY    52  39  61 NE12      29.68S
POUGHKEEPSIE   CLOUDY    58  35  42 N13       29.67S
NEWBURGH       PTSUNNY   55  36  47 N17G29    29.68F
MONTGOMERY     CLOUDY    56  34  43 NW7       29.67F
WHITE PLAINS   PTSUNNY   55  32  41 NW13      29.65S
ISLIP          MOSUNNY   59  33  37 N17G24    29.63F
NEW YORK CITY  PTSUNNY   57  32  38 NW8       29.67S
CENTRAL PARK   PTSUNNY   59  28  30 VRB6      29.69F
$$

NYZ005>009-017-018-044>046-055-056-271700-
CENTRAL


CITY           SKY/WX    TMP DP  RH WIND       PRES   REMARKS
FULTON         PTSUNNY   46  35  65 NW12      29.81S
SYRACUSE       CLOUDY    49  35  58 W12       29.79S
ROME           CLOUDY    50  35  56 W9        29.75F
ELMIRA         CLOUDY    48  36  63 N10       29.79R
BINGHAMTON     CLOUDY    44  36  73 NW12      29.74S
MONTICELLO     CLOUDY    46  32  57 NW13      29.71S
$$

NYZ026>034-041>043-271700-
NORTH


CITY           SKY/WX    TMP DP  RH WIND       PRES   REMARKS
WATERTOWN      CLOUDY    50  36  58 N7        29.80R
FORT DRUM      NOT AVBL
MASSENA        CLOUDY    51  38  60 VRB3      29.78S
SARANAC LAKE   CLOUDY    41  36  82 VRB6      29.71R
PLATTSBURGH    LGT RAIN  48  42  80 N16       29.73S
$$

NYZ001>004-010>016-019>021-271700-
WEST


CITY           SKY/WX    TMP DP  RH WIND       PRES   REMARKS
NIAGARA FALLS  PTSUNNY   43  35  73 N13       29.87R
BUFFALO        LGT RAIN  42  35  76 NW13      29.87R
DUNKIRK        LGT RAIN  40  38  93 NW8       29.90R WCI  34
JAMESTOWN      CLOUDY    39  34  81 NW7       29.85R WCI  34
WELLSVILLE     CLOUDY    41  33  73 W10       29.80R
ROCHESTER      CLOUDY    44  36  73 NW9       29.84S
PENN YAN       LGT RAIN  44  37  76 NW7       29.82R
$$

             KEY
       WCI = WIND CHILL INDEX
       VSB = VISIBILITY
       HX  = HEAT INDEX
$$


USA.gov is the U.S. government's official web portal to all federal, state and local government web resources and services.